Weather History for PAGK - October, 2013

Change the Weather History Date:

Saturday, October 26, 2013

  Actual Average Record
Temperature  
Mean Temperature 30 °F -  
Max Temperature 37 °F 24 °F 46 °F (1952)
Min Temperature 24 °F 10 °F -16 °F (1958)
Degree Days  
Heating Degree Days 34    
Moisture  
Dew Point 28 °F    
Average Humidity 89    
Maximum Humidity 96    
Minimum Humidity 63    
Precipitation  
Precipitation 0.03 in - - ()
Sea Level Pressure  
Sea Level Pressure 30.42 in    
Wind  
Wind Speed 2 mph (NW)    
Max Wind Speed 8 mph    
Max Gust Speed -    
Visibility 10 miles    
Events Rain    
Averages and records for this station are not official NWS values.
T = Trace of Precipitation, MM = Missing Value Source: NWS Daily Summary

Daily Weather History Graph

Daily Weather History Graph

Search for Another Location

Airport or City:

Trip Planner

Search our weather history database for the weather conditions in past years. The results will help you decide how hot, cold, wet, or windy it might be!

Date:

Astronomy

Oct. 26, 2013 Rise Set
Actual Time 8:58 AM AKDT 5:51 PM AKDT
Civil Twilight 8:10 AM AKDT 6:39 PM AKDT
Nautical Twilight 7:18 AM AKDT 7:31 PM AKDT
Astronomical Twilight 6:26 AM AKDT 8:23 PM AKDT
Moon No Moon Rise 3:32 PM AKDT
Length of Visible Light 10h 28m
Length of Day
8h 53m
Waning Gibbous, 51% of the Moon is Illuminated
Oct 26
Waning Gibbous
Oct 26
Last Quarter
Nov 3
New
Nov 9
First Quarter
Nov 17
Full

Hourly Weather History & Observations

Time (AKDT) Temp. Windchill Dew Point Humidity Pressure Visibility Wind Dir Wind Speed Gust Speed Precip Events Conditions
12:30 AM 35.1 °F - 34.0 °F 96% 30.06 in 4.0 mi Calm Calm - 0.02 in Rain Light Rain
12:53 AM 35.1 °F 32.2 °F 34.0 °F 96% 30.14 in 10.0 mi West 3.5 mph - 0.03 in Rain Light Rain
1:37 AM 34.0 °F - 33.1 °F 96% 30.09 in 10.0 mi Calm Calm - 0.00 in   Overcast
1:53 AM 34.0 °F 29.8 °F 33.1 °F 96% 30.17 in 10.0 mi West 4.6 mph - 0.00 in   Overcast
2:53 AM 32.0 °F - 30.9 °F 96% 30.20 in 10.0 mi Calm Calm - N/A   Overcast
3:53 AM 30.9 °F - 30.0 °F 96% 30.23 in 10.0 mi Calm Calm - N/A   Partly Cloudy
4:53 AM 28.9 °F 25.2 °F 27.0 °F 92% 30.28 in 4.0 mi WNW 3.5 mph - N/A   Clear
5:53 AM 28.9 °F 25.2 °F 28.0 °F 96% 30.32 in 10.0 mi West 3.5 mph - N/A   Mostly Cloudy
6:53 AM 28.9 °F 25.2 °F 28.0 °F 96% 30.35 in 10.0 mi WNW 3.5 mph - N/A   Scattered Clouds
7:53 AM 26.1 °F 20.5 °F 25.0 °F 96% 30.38 in 10.0 mi WNW 4.6 mph - N/A   Clear
8:53 AM 26.1 °F 21.9 °F 25.0 °F 96% 30.41 in 10.0 mi West 3.5 mph - N/A   Clear
9:53 AM 27.0 °F - 25.0 °F 92% 30.45 in 10.0 mi Calm Calm - N/A   Clear
10:53 AM 30.9 °F 27.5 °F 27.0 °F 85% 30.49 in 10.0 mi WNW 3.5 mph - N/A   Clear
11:53 AM 34.0 °F - 28.9 °F 82% 30.51 in 10.0 mi Calm Calm - N/A   Clear
12:53 PM 35.1 °F - 28.9 °F 78% 30.53 in 10.0 mi Calm Calm - N/A   Clear
1:53 PM 36.0 °F - 28.9 °F 76% 30.54 in 10.0 mi Calm Calm - N/A   Clear
2:53 PM 37.0 °F - 30.9 °F 79% 30.55 in 10.0 mi Calm Calm - N/A   Clear
3:53 PM 37.0 °F - 28.9 °F 73% 30.54 in 10.0 mi Calm Calm - N/A   Clear
4:53 PM 35.1 °F - 28.0 °F 76% 30.55 in 10.0 mi Calm Calm - N/A   Clear
5:53 PM 28.0 °F 24.2 °F 26.1 °F 92% 30.58 in 10.0 mi NNE 3.5 mph - N/A   Clear
6:53 PM 27.0 °F 20.5 °F 25.0 °F 92% 30.59 in 10.0 mi North 5.8 mph - N/A   Clear
7:53 PM 24.1 °F - 23.0 °F 96% 30.61 in 10.0 mi Calm Calm - N/A   Clear
8:53 PM 24.1 °F 17.0 °F 21.9 °F 91% 30.61 in 10.0 mi NNE 5.8 mph - N/A   Clear
9:53 PM 27.0 °F 20.5 °F 25.0 °F 92% 30.58 in 10.0 mi North 5.8 mph - N/A   Clear
10:53 PM 27.0 °F 18.7 °F 25.0 °F 92% 30.56 in 10.0 mi NNE 8.1 mph - N/A   Clear
11:53 PM 26.1 °F 17.6 °F 24.1 °F 92% 30.53 in 10.0 mi NNE 8.1 mph - N/A   Clear